• In Portugal
  • List of Countries
  • For 7 days
  • Water Temperature
  • Satellite Maps
  • Weather Map
  • Weather Widgets
  • user-avatar
    Login

    Hourly Weather Shemyakino

    Today, 22 July, Sunday

    Time Temperature Precipitation Wind Pressure Humidity
    00:00 +19°C° 0 mm 2 mps 734 mmHg 95%
    01:00 +18°C° 0 mm 2 mps 734 mmHg 96%
    02:00 +18°C° 0 mm 2 mps 734 mmHg 96%
    03:00 +18°C° 0.1 mm 2 mps 734 mmHg 97%
    04:00 +18°C° 0.1 mm 2 mps 735 mmHg 97%
    05:00 +18°C° 0.1 mm 3 mps 735 mmHg 97%
    06:00 +20°C° 0.1 mm 3 mps 735 mmHg 94%
    07:00 +21°C° 0.1 mm 3 mps 735 mmHg 91%
    08:00 +22°C° 0.1 mm 4 mps 735 mmHg 88%
    09:00 +23°C° 0.5 mm 4 mps 735 mmHg 86%
    10:00 +23°C° 0.5 mm 5 mps 735 mmHg 83%
    11:00 +25°C° 0.5 mm 5 mps 735 mmHg 81%
    12:00 +25°C° 0.6 mm 5 mps 735 mmHg 82%
    13:00 +25°C° 0.6 mm 5 mps 735 mmHg 83%
    14:00 +23°C° 0.6 mm 6 mps 734 mmHg 84%
    15:00 +23°C° 0.3 mm 5 mps 734 mmHg 84%
    16:00 +23°C° 0.3 mm 5 mps 734 mmHg 84%
    17:00 +23°C° 0.3 mm 5 mps 734 mmHg 84%
    18:00 +22°C° 0.3 mm 5 mps 734 mmHg 87%
    19:00 +21°C° 0.3 mm 4 mps 734 mmHg 90%
    20:00 +20°C° 0.3 mm 4 mps 734 mmHg 93%
    21:00 +20°C° 0.3 mm 4 mps 735 mmHg 94%
    22:00 +19°C° 0.3 mm 5 mps 735 mmHg 95%
    23:00 +19°C° 0.3 mm 5 mps 735 mmHg 96%

    Tomorrow, 23 July, Monday

    Time Temperature Precipitation Wind Pressure Humidity
    00:00 +19°C° 0 mm 5 mps 735 mmHg 95%
    01:00 +19°C° 0 mm 5 mps 735 mmHg 95%
    02:00 +19°C° 0 mm 5 mps 735 mmHg 95%
    03:00 +17°C° 0 mm 5 mps 735 mmHg 95%
    04:00 +17°C° 0 mm 5 mps 735 mmHg 95%
    05:00 +18°C° 0 mm 4 mps 735 mmHg 95%
    06:00 +18°C° 0.1 mm 4 mps 735 mmHg 94%
    07:00 +18°C° 0.1 mm 4 mps 735 mmHg 94%
    08:00 +19°C° 0.1 mm 4 mps 735 mmHg 94%
    09:00 +19°C° 0 mm 5 mps 735 mmHg 92%
    10:00 +19°C° 0 mm 5 mps 736 mmHg 91%
    11:00 +20°C° 0 mm 5 mps 736 mmHg 89%
    12:00 +20°C° 0 mm 5 mps 736 mmHg 89%
    13:00 +20°C° 0 mm 5 mps 736 mmHg 88%
    14:00 +20°C° 0 mm 5 mps 735 mmHg 87%
    15:00 +20°C° 0 mm 5 mps 735 mmHg 87%
    16:00 +20°C° 0 mm 5 mps 735 mmHg 88%
    17:00 +20°C° 0 mm 5 mps 735 mmHg 89%
    18:00 +19°C° 0 mm 5 mps 736 mmHg 90%
    19:00 +19°C° 0 mm 4 mps 736 mmHg 92%
    20:00 +19°C° 0 mm 4 mps 736 mmHg 93%
    21:00 +19°C° 0.1 mm 4 mps 736 mmHg 94%
    22:00 +19°C° 0.1 mm 4 mps 736 mmHg 95%
    23:00 +19°C° 0.1 mm 4 mps 736 mmHg 96%

    Day after tomorrow, 24 July, Tuesday

    Time Temperature Precipitation Wind Pressure Humidity
    00:00 +18°C° 0.1 mm 3 mps 736 mmHg 97%
    01:00 +18°C° 0.1 mm 3 mps 736 mmHg 97%
    02:00 +18°C° 0.1 mm 3 mps 736 mmHg 97%
    03:00 +18°C° 0.3 mm 3 mps 736 mmHg 97%
    04:00 +19°C° 0.3 mm 3 mps 736 mmHg 97%
    05:00 +19°C° 0.3 mm 3 mps 736 mmHg 97%
    06:00 +20°C° 0.4 mm 3 mps 736 mmHg 95%
    07:00 +21°C° 0.4 mm 3 mps 737 mmHg 92%
    08:00 +22°C° 0.4 mm 3 mps 737 mmHg 90%
    09:00 +24°C° 0.9 mm 3 mps 737 mmHg 85%
    10:00 +25°C° 0.9 mm 3 mps 737 mmHg 79%
    11:00 +26°C° 0.9 mm 3 mps 737 mmHg 74%
    12:00 +27°C° 0.7 mm 3 mps 737 mmHg 72%
    13:00 +27°C° 0.7 mm 3 mps 737 mmHg 70%
    14:00 +28°C° 0.7 mm 3 mps 738 mmHg 69%
    15:00 +27°C° 0.4 mm 3 mps 738 mmHg 73%
    16:00 +27°C° 0.4 mm 3 mps 738 mmHg 77%
    17:00 +27°C° 0.4 mm 2 mps 738 mmHg 81%
    18:00 +25°C° 0.3 mm 3 mps 738 mmHg 84%
    19:00 +24°C° 0.3 mm 3 mps 738 mmHg 87%
    20:00 +21°C° 0.3 mm 4 mps 738 mmHg 91%
    21:00 +21°C° 1.3 mm 3 mps 739 mmHg 92%
    22:00 +20°C° 1.3 mm 3 mps 739 mmHg 94%
    23:00 +19°C° 1.3 mm 2 mps 739 mmHg 95%

    25 July, Wednesday

    Time Temperature Precipitation Wind Pressure Humidity
    00:00 +19°C° 1.5 mm 3 mps 739 mmHg 95%
    01:00 +19°C° 1.5 mm 3 mps 739 mmHg 96%
    02:00 +19°C° 1.5 mm 4 mps 739 mmHg 96%
    03:00 +19°C° 0.7 mm 4 mps 739 mmHg 96%
    04:00 +18°C° 0.7 mm 4 mps 739 mmHg 96%
    05:00 +18°C° 0.7 mm 4 mps 739 mmHg 96%
    06:00 +19°C° 0.4 mm 4 mps 739 mmHg 95%
    07:00 +19°C° 0.4 mm 3 mps 739 mmHg 94%
    08:00 +20°C° 0.4 mm 3 mps 739 mmHg 93%
    09:00 +21°C° 0.1 mm 3 mps 740 mmHg 89%
    10:00 +22°C° 0.1 mm 4 mps 740 mmHg 85%
    11:00 +23°C° 0.1 mm 4 mps 740 mmHg 80%
    12:00 +25°C° 0.4 mm 4 mps 740 mmHg 79%
    13:00 +26°C° 0.4 mm 4 mps 740 mmHg 77%
    14:00 +27°C° 0.4 mm 4 mps 740 mmHg 75%
    15:00 +26°C° 0.6 mm 4 mps 740 mmHg 77%
    16:00 +26°C° 0.6 mm 4 mps 741 mmHg 80%
    17:00 +26°C° 0.6 mm 4 mps 741 mmHg 83%
    18:00 +23°C° 0.2 mm 4 mps 741 mmHg 85%
    19:00 +22°C° 0.2 mm 4 mps 741 mmHg 88%
    20:00 +21°C° 0.2 mm 3 mps 741 mmHg 91%
    21:00 +20°C° 0 mm 3 mps 741 mmHg 92%
    22:00 +20°C° 0 mm 3 mps 741 mmHg 92%
    23:00 +19°C° 0 mm 3 mps 742 mmHg 92%

    26 July, Thursday

    Time Temperature Precipitation Wind Pressure Humidity
    00:00 +19°C° 0 mm 3 mps 742 mmHg 92%
    01:00 +18°C° 0 mm 3 mps 742 mmHg 91%
    02:00 +18°C° 0 mm 3 mps 742 mmHg 91%
    03:00 +18°C° 0 mm 3 mps 742 mmHg 90%
    04:00 +17°C° 0 mm 3 mps 742 mmHg 90%
    05:00 +17°C° 0 mm 3 mps 743 mmHg 89%
    06:00 +19°C° 0 mm 3 mps 743 mmHg 85%
    07:00 +20°C° 0 mm 4 mps 743 mmHg 81%
    08:00 +22°C° 0 mm 4 mps 743 mmHg 76%
    09:00 +23°C° 0 mm 4 mps 743 mmHg 72%
    10:00 +26°C° 0 mm 4 mps 743 mmHg 69%
    11:00 +27°C° 0 mm 4 mps 743 mmHg 65%
    12:00 +28°C° 0 mm 5 mps 743 mmHg 65%
    13:00 +28°C° 0 mm 5 mps 743 mmHg 65%
    14:00 +29°C° 0 mm 5 mps 743 mmHg 65%
    15:00 +29°C° 0 mm 5 mps 743 mmHg 68%
    16:00 +29°C° 0 mm 4 mps 743 mmHg 71%
    17:00 +28°C° 0 mm 4 mps 743 mmHg 74%
    18:00 +27°C° 0 mm 4 mps 743 mmHg 79%
    19:00 +25°C° 0 mm 3 mps 743 mmHg 83%
    20:00 +24°C° 0 mm 3 mps 743 mmHg 88%
    21:00 +24°C° 0 mm 3 mps 744 mmHg 87%
    22:00 +22°C° 0 mm 4 mps 744 mmHg 86%
    23:00 +22°C° 0 mm 4 mps 744 mmHg 85%

    27 July, Friday

    Time Temperature Precipitation Wind Pressure Humidity
    00:00 +22°C° 0 mm 4 mps 744 mmHg 84%
    01:00 +21°C° 0 mm 4 mps 745 mmHg 84%
    02:00 +21°C° 0 mm 4 mps 745 mmHg 83%
    03:00 +21°C° 0.1 mm 4 mps 745 mmHg 84%
    04:00 +21°C° 0.1 mm 4 mps 745 mmHg 84%
    05:00 +21°C° 0.1 mm 4 mps 745 mmHg 85%
    06:00 +22°C° 0 mm 4 mps 746 mmHg 82%
    07:00 +23°C° 0 mm 5 mps 746 mmHg 79%
    08:00 +25°C° 0 mm 5 mps 746 mmHg 76%
    09:00 +26°C° 0 mm 5 mps 746 mmHg 72%
    10:00 +28°C° 0 mm 6 mps 747 mmHg 68%
    11:00 +29°C° 0 mm 6 mps 747 mmHg 64%
    12:00 +29°C° 0 mm 6 mps 747 mmHg 63%
    13:00 +30°C° 0 mm 6 mps 747 mmHg 61%
    14:00 +30°C° 0 mm 6 mps 747 mmHg 60%
    15:00 +30°C° 0 mm 5 mps 747 mmHg 64%
    16:00 +29°C° 0 mm 5 mps 747 mmHg 68%
    17:00 +29°C° 0 mm 4 mps 747 mmHg 71%
    18:00 +27°C° 0 mm 4 mps 747 mmHg 76%
    19:00 +26°C° 0 mm 4 mps 748 mmHg 80%
    20:00 +24°C° 0 mm 3 mps 748 mmHg 85%
    21:00 +24°C° 0 mm 3 mps 748 mmHg 85%
    22:00 +22°C° 0 mm 3 mps 748 mmHg 86%
    23:00 +21°C° 0 mm 3 mps 748 mmHg 86%
    Show more